TimeAKDT,TemperatureF,Dew PointF,Humidity,Sea Level PressureIn,VisibilityMPH,Wind Direction,Wind SpeedMPH,Gust SpeedMPH,PrecipitationIn,Events,Conditions,WindDirDegrees,DateUTC
12:32 AM,57.2,57.2,100,30.02,8.0,North,3.5,-,0.01,Rain,Rain,350,2013-08-12 08:32:00
12:53 AM,57.0,57.0,100,30.02,10.0,North,3.5,-,0.01,Rain,Light Rain,360,2013-08-12 08:53:00
1:53 AM,57.0,57.0,100,30.03,8.0,Calm,Calm,-,N/A,Rain,Light Rain,0,2013-08-12 09:53:00
2:53 AM,57.0,57.0,100,30.03,10.0,Calm,Calm,-,N/A,Rain,Light Rain,0,2013-08-12 10:53:00
3:53 AM,57.0,57.0,100,30.03,10.0,NNW,3.5,-,N/A,Rain,Light Rain,340,2013-08-12 11:53:00
4:53 AM,57.0,57.0,100,30.03,10.0,North,4.6,-,N/A,Rain,Light Rain,350,2013-08-12 12:53:00
5:53 AM,55.9,55.9,100,30.03,8.0,NNW,4.6,-,N/A,Rain,Light Rain,340,2013-08-12 13:53:00
6:53 AM,55.9,55.9,100,30.04,1.5,Calm,Calm,-,N/A,Rain,Light Rain,0,2013-08-12 14:53:00
7:00 AM,55.4,55.4,100,30.03,10.0,North,3.5,-,N/A,Rain,Light Rain,350,2013-08-12 15:00:00
7:04 AM,55.4,55.4,100,30.03,1.5,NNW,3.5,-,N/A,Rain,Light Rain,340,2013-08-12 15:04:00
7:53 AM,55.9,55.9,100,30.04,1.5,NNW,5.8,-,N/A,Rain,Light Rain,340,2013-08-12 15:53:00
8:00 AM,55.4,55.4,100,30.03,2.0,North,3.5,-,0.00,Rain,Light Rain,360,2013-08-12 16:00:00
8:53 AM,57.0,57.0,100,30.04,2.0,North,4.6,-,0.00,Rain,Light Rain,360,2013-08-12 16:53:00
9:00 AM,57.2,57.2,100,30.04,4.0,North,4.6,-,0.00,Rain,Light Rain,360,2013-08-12 17:00:00
9:53 AM,57.9,57.9,100,30.04,4.0,North,4.6,-,0.00,,Overcast,360,2013-08-12 17:53:00
10:53 AM,57.9,57.9,100,30.04,5.0,North,3.5,-,N/A,,Overcast,10,2013-08-12 18:53:00
11:53 AM,59.0,59.0,100,30.05,10.0,North,4.6,-,N/A,,Overcast,360,2013-08-12 19:53:00
12:24 PM,60.8,60.8,100,30.04,10.0,North,6.9,-,N/A,,Overcast,350,2013-08-12 20:24:00
12:53 PM,62.1,57.9,86,30.04,10.0,North,4.6,-,N/A,,Mostly Cloudy,360,2013-08-12 20:53:00
1:53 PM,64.0,59.0,84,30.05,10.0,Calm,Calm,-,N/A,,Scattered Clouds,0,2013-08-12 21:53:00
2:53 PM,66.0,57.9,75,30.03,10.0,North,5.8,-,0.01,,Mostly Cloudy,350,2013-08-12 22:53:00
3:53 PM,66.9,59.0,76,30.03,10.0,NW,6.9,-,N/A,,Mostly Cloudy,310,2013-08-12 23:53:00
4:53 PM,66.0,55.9,70,30.02,10.0,NNW,4.6,-,N/A,,Scattered Clouds,340,2013-08-13 00:53:00
5:53 PM,66.9,57.0,70,30.02,10.0,Variable,4.6,-,N/A,,Clear,0,2013-08-13 01:53:00
6:53 PM,66.9,57.9,73,30.01,10.0,North,5.8,-,N/A,,Partly Cloudy,360,2013-08-13 02:53:00
7:53 PM,66.0,59.0,78,30.01,10.0,North,3.5,-,N/A,,Scattered Clouds,350,2013-08-13 03:53:00
8:53 PM,64.0,61.0,90,30.01,10.0,NW,3.5,-,0.01,,Mostly Cloudy,310,2013-08-13 04:53:00
9:53 PM,61.0,61.0,100,30.02,10.0,West,5.8,-,N/A,,Scattered Clouds,280,2013-08-13 05:53:00
10:53 PM,60.1,59.0,96,30.02,10.0,Calm,Calm,-,N/A,,Clear,0,2013-08-13 06:53:00
11:53 PM,60.1,59.0,96,30.02,10.0,Calm,Calm,-,N/A,,Mostly Cloudy,0,2013-08-13 07:53:00